Tracking 19644 objects as of 24-Apr-2019
HD Live streaming from Space Station
objects crossing your sky now

COSMOS 1823 DEB

Track COSMOS 1823 DEB now!
10-day predictions


NORAD ID: 18725
Int'l Code: 1987-020C
Perigee: 1,463.8 km
Apogee: 1,578.7 km
Inclination: 73.8 °
Period: 116.3 minutes
Semi major axis: 7892 km
RCS: 0.1513 m2 (medium)
Launch date: February 20, 1987
Source: Commonwealth of Independent States (former USSR) (CIS)
Launch site: PLESETSK MISSILE AND SPACE COMPLEX (PKMTR)

Note: This is SATELLITE DEBRIS
aabbcc
Your satellite tracking list
Your tracking list is empty




NASA's NSSDC Master Catalog

Two Line Element Set (TLE):
1 18725U 87020C   19113.22169271 -.00000096  00000-0 -60243-3 0  9990
2 18725  73.7656 205.1399 0072812 319.6487  65.8773 12.38238644416273
Source of the keplerian elements: AFSPC